Wilmington, OH

9:05 AM EDT on September 19, 2017 (GMT -0400)
Airborne

Weather History for KILN - October, 2013

Change the Weather History Date:

Saturday, October 19, 2013

  Actual Average (KFFO) Record (KFFO)
Temperature  
Mean Temperature 44 °F -  
Max Temperature 51 °F 60 °F 80 °F (2005)
Min Temperature 37 °F 40 °F 29 °F (2015)
Degree Days  
Heating Degree Days 22    
Moisture  
Dew Point 42 °F    
Average Humidity 90    
Maximum Humidity 100    
Minimum Humidity 76    
Precipitation  
Precipitation 0.16 in - - ()
Sea Level Pressure  
Sea Level Pressure 29.91 in    
Wind  
Wind Speed 6 mph (West)    
Max Wind Speed 15 mph    
Max Gust Speed 25 mph    
Visibility 7 miles    
Events Rain    
Averages and records for this station are not official NWS values.
T = Trace of Precipitation, MM = Missing Value Source: NWS Daily Summary

Daily Weather History Graph

Daily Weather History Graph

Search for Another Location

Airport or City:

Trip Planner

Search our weather history database for the weather conditions in past years. The results will help you decide how hot, cold, wet, or windy it might be!

Date:

Astronomy

Oct. 19, 2013 Rise Set
Actual Time 7:49 AM EDT 6:50 PM EDT
Civil Twilight 7:22 AM EDT 7:17 PM EDT
Nautical Twilight 6:50 AM EDT 7:48 PM EDT
Astronomical Twilight 6:19 AM EDT 8:19 PM EDT
Moon 7:17 PM EDT 8:25 AM EDT
Length of Visible Light 11h 55m
Length of Day
11h 00m
Waxing Gibbous, 99% of the Moon is Illuminated
Oct 19
Waxing Gibbous
Oct 26
Last Quarter
Nov 3
New
Nov 10
First Quarter
Nov 17
Full

Hourly Weather History & Observations

Time (EDT) Temp. Windchill Dew Point Humidity Pressure Visibility Wind Dir Wind Speed Gust Speed Precip Events Conditions
12:54 AM 46.9 °F - 42.1 °F 83% 29.96 in 10.0 mi South 3.5 mph - N/A   Clear
1:54 AM 50.0 °F - 43.0 °F 77% 29.96 in 10.0 mi West 3.5 mph - N/A   Overcast
2:54 AM 48.9 °F - 44.1 °F 83% 29.95 in 10.0 mi North 4.6 mph - N/A   Overcast
3:54 AM 46.0 °F - 43.0 °F 89% 29.94 in 7.0 mi Calm Calm - N/A   Scattered Clouds
4:54 AM 44.1 °F - 42.1 °F 93% 29.92 in 5.0 mi Calm Calm - N/A   Partly Cloudy
5:54 AM 44.1 °F 41.5 °F 42.1 °F 93% 29.90 in 4.0 mi NNE 4.6 mph - N/A   Clear
6:54 AM 45.0 °F - 43.0 °F 93% 29.88 in 4.0 mi Calm Calm - N/A   Overcast
7:54 AM 46.0 °F - 44.1 °F 93% 29.87 in 4.0 mi Calm Calm - 0.00 in   Overcast
8:54 AM 46.9 °F - 45.0 °F 93% 29.88 in 4.0 mi Calm Calm - 0.00 in   Overcast
9:54 AM 46.9 °F - 45.0 °F 93% 29.88 in 5.0 mi WSW 5.8 mph - 0.01 in   Overcast
10:11 AM 46.4 °F 42.9 °F 44.6 °F 93% 29.84 in 4.0 mi SW 6.9 mph - N/A   Overcast
10:32 AM 46.4 °F 42.9 °F 46.4 °F 100% 29.84 in 4.0 mi SW 6.9 mph - 0.00 in   Overcast
10:54 AM 48.0 °F - 46.0 °F 93% 29.87 in 3.0 mi SSW 8.1 mph - 0.01 in   Overcast
11:05 AM 48.2 °F - 46.4 °F 93% 29.83 in 2.5 mi SSW 6.9 mph - 0.01 in Rain Light Rain
11:47 AM 46.4 °F 40.7 °F 44.6 °F 93% 29.84 in 2.5 mi NW 12.7 mph - 0.09 in Rain Rain
11:54 AM 45.0 °F 38.9 °F 43.0 °F 93% 29.88 in 3.0 mi WNW 12.7 mph 19.6 mph 0.09 in Rain Rain
12:09 PM 44.6 °F 38.4 °F 42.8 °F 93% 29.85 in 4.0 mi NW 12.7 mph 25.3 mph 0.02 in Rain Light Rain
12:26 PM 44.6 °F 40.2 °F 42.8 °F 93% 29.86 in 7.0 mi NW 8.1 mph - 0.03 in Rain Light Rain
12:47 PM 44.6 °F 40.7 °F 42.8 °F 93% 29.85 in 9.0 mi WNW 6.9 mph - 0.03 in   Overcast
12:54 PM 45.0 °F 41.2 °F 42.1 °F 90% 29.89 in 9.0 mi WNW 6.9 mph - 0.03 in   Overcast
1:30 PM 44.6 °F 38.8 °F 42.8 °F 93% 29.86 in 7.0 mi WNW 11.5 mph - 0.00 in   Overcast
1:43 PM 44.6 °F 37.8 °F 42.8 °F 93% 29.87 in 7.0 mi West 15.0 mph - 0.01 in   Overcast
1:54 PM 45.0 °F 39.3 °F 42.1 °F 90% 29.90 in 9.0 mi West 11.5 mph 19.6 mph 0.01 in   Overcast
2:19 PM 44.6 °F 39.2 °F 42.8 °F 93% 29.86 in 10.0 mi West 10.4 mph 19.6 mph N/A   Overcast
2:29 PM 46.4 °F 41.1 °F 42.8 °F 87% 29.86 in 10.0 mi West 11.5 mph 19.6 mph N/A   Overcast
2:54 PM 46.0 °F 40.6 °F 42.1 °F 86% 29.90 in 10.0 mi WNW 11.5 mph 17.3 mph N/A   Overcast
3:54 PM 45.0 °F 38.5 °F 39.9 °F 82% 29.93 in 10.0 mi West 13.8 mph - N/A   Overcast
4:41 PM 46.4 °F 41.1 °F 41.0 °F 81% 29.90 in 10.0 mi West 11.5 mph - N/A   Overcast
4:54 PM 46.9 °F - 41.0 °F 80% 29.95 in 10.0 mi West 10.4 mph - N/A   Overcast
5:17 PM 46.4 °F 41.1 °F 39.2 °F 76% 29.91 in 10.0 mi WSW 11.5 mph - N/A   Overcast
5:54 PM 46.0 °F 41.4 °F 41.0 °F 83% 29.96 in 10.0 mi West 9.2 mph - 0.01 in   Overcast
6:54 PM 43.0 °F 38.8 °F 39.9 °F 89% 29.98 in 10.0 mi SW 6.9 mph - N/A   Clear
7:54 PM 39.0 °F 34.0 °F 37.9 °F 96% 30.00 in 10.0 mi SSW 6.9 mph - N/A   Clear
8:54 PM 37.9 °F 33.5 °F 37.0 °F 97% 30.01 in 10.0 mi SSW 5.8 mph - N/A   Clear
9:54 PM 39.9 °F 35.8 °F 39.0 °F 97% 30.02 in 10.0 mi SSW 5.8 mph - N/A   Clear
10:54 PM 39.0 °F 34.8 °F 37.9 °F 96% 30.04 in 10.0 mi SSW 5.8 mph - N/A   Clear
11:54 PM 37.9 °F 33.5 °F 37.0 °F 97% 30.04 in 10.0 mi SSW 5.8 mph - N/A   Clear